Location: San Antonio de Areco
(34.2500°S, 59.4670°W)
Time: 11:32:05
(UTC-03:00)

ISS - Visible Passes

Search period start: 22 July 2017 00:00
Search period end: 01 August 2017 00:00
Orbit: 400 x 408 km, 51.6° (Epoch: 22 July)

Date Brightness Start Highest point End Pass type
(mag) Time Alt. Az. Time Alt. Az. Time Alt. Az.
26 Jul -0.5 07:13:10 10° NNE 07:15:12 15° NE 07:17:16 10° E visible
28 Jul -2.4 07:03:33 10° NNW 07:06:42 42° NE 07:09:53 10° ESE visible
29 Jul -1.1 06:11:58 10° N 06:14:27 20° NE 06:16:57 10° E visible
30 Jul -3.8 06:55:00 10° NW 06:58:17 64° SW 07:01:38 10° SE visible
31 Jul -3.2 06:05:52 56° NE 06:05:53 56° NE 06:09:11 10° SE visible
